sat.trackr.live / text

‹ back to catalog

ONEWEB-0131

NORAD 47277 · 2020-100V

PAYLOAD ACTIVE UNKNOWN

§ Identity

Operator
Country
UK
Launch date
2020-12-18
Launch site
VOSTO
Launch vehicle
Mass (kg)
RCS (m²)

Purposes: comms

External: N2YO · Heavens-Above · Gunter

§ Orbital elements

Epoch: 2026-05-25T02:04:43.599072Z

Period
109.72 min
Inclination
87.8949°
Eccentricity
0.0001745
Mean motion
13.12443785 rev/d
Perigee alt
1,212.4 km
Apogee alt
1,215.0 km
Semi-major
7,591.9 km
B*
-4.7301e-4
RAAN
355.2665°
Arg perigee
85.2000°
Mean anomaly
274.9328°
Rev number
26,165

§ Raw data

ONEWEB-01311 47277U 20100V   26145.08661573 -.00000157  00000+0 -47301-3 0  99962 47277  87.8949 355.2665 0001745  85.2000 274.9328 13.12443785261651

JSON: /api/v1/satellites/47277 · /tle

For live sub-satellite position, see the globe view (requires WebGL).

§ Visibility from observer

Set your observer location to see the next 7 days of passes ≥ 10°. The values pass through the URL so the page stays shareable.

No JS? Fill the form by hand. The geolocation button needs JavaScript.